{"data":{"norad_id":56832,"epoch":"2026-05-25T00:16:54.255648Z","epoch_age_seconds":73948,"freshness":"FRESH","line1":"1 56832U 23079K   26145.01173907  .00000518  00000+0  28322-4 0  9995","line2":"2 56832  43.0035  10.2072 0000764 251.9162 108.1606 15.27582186158456","mean_motion":15.27582186,"eccentricity":7.64e-5,"inclination_deg":43.0035,"raan_deg":10.2072,"arg_perigee_deg":251.9162,"mean_anomaly_deg":108.1606,"bstar":2.8322e-5,"rev_number":15845,"period_min":94.26661381609,"perigee_km":482.5183562594,"apogee_km":483.5667444947,"semimajor_km":6861.179550377,"source":"CELESTRAK","updated_at":"2026-05-25T13:38:18.163184Z"}}